ONEWEB-0706, 61611

Orbit data source: Space-Track

ONEWEB-0706, 61611 is a payload satellite owned by Eut. One Web (UK) in LEO that was launched on Sun, 20 Oct 2024 UTC via an FALCON 9 launch vehicle from the Air Force Western Test Range (AFWTR). Payload-class satellites include a variety of spacecraft equipped with specific instruments for various scientific and technological missions. These include communications satellites like Starlink; space stations such as the ISS; scientific satellites like the Hubble; Earth observation satellites from companies like Planet Labs, Umbra, and HawkEye 360; GPS; miniature CubeSats for education and research; and military/defense satellites.

Loading next visibility...
Identifier
61611, 2024-188T
Orbit
LEO
Country
Flag of UKUK
Related business
Manufacturer
One Web
Mission
Operational spacecraft
Bus & Motor
ARROW, Unknown motor
Mass
148 kg wet, ~140 kg dry
Launch date (UTC)
2024-10-20 (1 year ago)
Launch vehicle
FALCON 9
Launch site
Air Force Western Test Range (AFWTR)
Object type
Payload
Rocket body
Debris
Shape & HBR
Unknown shape, 6.7 m
Radar Cross Section
Large (>1 m²)

Expand to show TLE details & history
Last TLE update: 9 hours ago

TLE from 9 hours ago
0 ONEWEB-0706
1 61611U 24188T   26035.80827773 -.00000228  00000-0 -69039-3 0  9990
2 61611  87.8756  62.6462 0002331 106.6933 253.4450 13.10375862 66046
Epoch: 2026-02-04T19:23Z
TLE epoch observation values (Epoch: 2026-02-04T19:23:55.195Z)
Latitude
-0.00007°
Longitude
-3.30333°
Altitude
1,225.098 km
Speed
7.242 km/s
True Right ascension
04h 10m 35s
True Declination
0° 00' 00"
Sunlit
Object was in daylight at epoch
Visualization orbit readout
Latitude
Unknown
Longitude
Unknown
Altitude
Unknown
Speed
Unknown
Apparent Right ascension
Unknown
Apparent Declination
Unknown
Sunlit
N/A
Visualization observer readout
Local Sidereal Time
06:08:29
Azimuth
Unknown
Elevation
Unknown
Doppler factor
Unknown
Orbital elements
Apogee altitude
1,220.596 km
Perigee altitude
1,217.054 km
Semi-major axis
7,596.962 km
Eccentricity
0.00023
Inclination
87.8756°
RAAN
62.6462°
Arg. of periapsis
106.6933°
True anomaly
253.4194°
Mean anomaly
253.445°
Eccentric anomaly
253.4322°
Mean motion
3.27781 °/min
Orbital period
109.83 mins
BSTAR
-0.00069039
Loading maneuver chart data...
Computing Atmospheric mass density...
Loading historical data...
Loading historical data...
Loading historical data...
Loading historical data...
Loading historical data...
Loading historical data...
Loading historical data...

Documentation

Showing up to 5 results
|